Powrót do katalogu

ASTROCAST-01

AktywnyKrótkofalarstwoSSO
NORAD 43798·PAYLOAD·🇨🇭 Switzerland

Wystrzelony Dec 3, 2018 z Vandenberg Space Force Base

Loading…

Następne Przeloty (najbliższe 24 godziny)

TLE

ŚwieżeSource: Space-Track

Epoka: Sep 14, 2026, 11:02 UTC

1 43798U 18099AS  26257.45981675  .00037839  00000-0  54761-3 0  9991
2 43798  97.4307 339.1194 0003104 240.4320 119.6625 15.55807852428286

Śledź ASTROCAST-01 w czasie rzeczywistym z AllMySat

Download on the App Store